Regional Weather Roundup
Issued by NWS

Home | Current Version | Previous Version | Text Only | Print | Product List | Glossary On
Versions: 1 2 3 4 5 6 7 8 9 10 11 12 13 14 15 16 17 18 19 20 21 22 23 24 25 26 27 28 29 30 31 32 33 34 35 36 37 38 39 40 41 42 43 44 45 46 47 48
000
ASUS45 KTFX 071310
RWRMT
MONTANA REGIONAL WEATHER ROUNDUP
NATIONAL WEATHER SERVICE GREAT FALLS MT
600 AM MST SUN FEB 07 2016

NOTE: "FAIR" INDICATES FEW OR NO CLOUDS BELOW 12000 FEET WITH NO
SIGNIFICANT WEATHER AND/OR OBSTRUCTIONS TO VISIBILITY.

MTZ001>007-043-071400-
WEST OF THE DIVIDE

CITY           SKY/WX    TMP DP  RH WIND       PRES   REMARKS
KALISPELL      CLEAR     12  11  95 CALM      30.49R
MISSOULA       CLEAR     19  15  84 CALM      30.52R
BUTTE          CLOUDY     8   3  80 SE3       30.42R
MULLAN PASS    CLEAR     21  15  78 W5        30.39R
ANACONDA         N/A     21  12  68 W6        30.45R WCI  14
DEER LODGE       N/A     19  12  73 W7        30.46R WCI  10
HAMILTON         N/A     25  18  74 CALM      30.49R
LIBBY            N/A     16  14  93 CALM      30.50S
PLAINS           N/A     25  20  81 NW1       30.50R
THOMPSON FALLS   N/A     23  20  89 CALM      30.54R
$$

MTZ008-052>055-071400-
SOUTHWEST MONTANA

CITY           SKY/WX    TMP DP  RH WIND       PRES   REMARKS
BOZEMAN        CLOUDY    19  12  74 S7        30.43R WCI  10
DILLON         CLOUDY    23  11  60 S10       30.40R WCI  12
ENNIS          CLEAR     19  12  73 CALM      30.45R
TWIN BRIDGES     N/A     20   7  57 E5        30.35R
$$

MTZ009-010-012-014-046-048-049-054-071400-
EAST SLOPES AND CENTRAL MONTANA

CITY           SKY/WX    TMP DP  RH WIND       PRES   REMARKS
CUT BANK       CLEAR     23  13  65 NW13      30.36R WCI  11
GREAT FALLS    CLEAR     20  14  77 SW10      30.37R WCI   9
MALMSTROM AFB  CLEAR     25  16  69 SW10      30.38R WCI  14
HELENA         CLOUDY    30  16  56 W5        30.42R
CHOTEAU          N/A     28  12  50 W9        30.38R WCI  20
CONRAD           N/A     27  14  57 SW13      30.34R WCI  16
$$

MTZ011-013-016-021-045-047-050-051-071400-
NORTH CENTRAL MONTANA

CITY           SKY/WX    TMP DP  RH WIND       PRES   REMARKS
HAVRE          CLEAR     27  16  63 NW13      30.34R WCI  16
LEWISTOWN      CLEAR     27  15  61 NW14      30.32R WCI  16
N BAR RANCH      N/A     27  12  54 NW15G23   30.30R WCI  15
CHINOOK          N/A     27  14  59 W8        30.33R WCI  18
$$

MTZ017>020-022>027-061-062-071400-
NORTHEAST MONTANA

CITY           SKY/WX    TMP DP  RH WIND       PRES   REMARKS
GLASGOW        CLEAR     29  19  66 NW28G33   30.15R WCI  14
JORDAN           N/A     31  18  58 NW25G31   30.22R WCI  17
SIDNEY         MOCLDY    34  19  55 NW35G46   29.99R WCI  19
WOLF POINT     PTCLDY    33  20  58 NW33G44   30.09R WCI  18
PLENTYWOOD       N/A     28  23  80 NW39G53   29.90R WCI  11
POPLAR           N/A     32  19  59 NW25G32   30.06R WCI  19
SCOBEY           N/A     29  12  49 NW30      30.01R WCI  14
$$

MTZ028>42-056>058-071400-
SOUTHCENTRAL AND SOUTHEAST MONTANA

CITY           SKY/WX    TMP DP  RH WIND       PRES   REMARKS
BAKER          MOCLDY    32  12  43 NW32G53   30.03R WCI  17
BILLINGS       PTCLDY    31  15  52 NW10      30.33R WCI  22
LIVINGSTON     CLEAR     28  15  58 W20       30.34R WCI  15
MILES CITY     CLEAR     34  14  43 NW28G43   30.18R WCI  21
EKALAKA          N/A     29  10  44 W25       30.05R WCI  15
FORSYTH          N/A     34  14  44 W17G23    30.25R WCI  23
LAUREL           N/A     34  11  38 W16       30.28R WCI  24
ROUNDUP          N/A     30   9  41 W9        30.21R WCI  22
$$

REGIONAL REPORTS...DAKOTAS

CITY           SKY/WX    TMP DP  RH WIND       PRES   REMARKS
WILLISTON      MIX PCPN  32  24  72 NW36G48   29.92R WCI  16
MINOT          FLURRIES  35  24  64 W39G49    29.71R WCI  20
DICKINSON      LGT SNOW  27  23  85 NW30G41   29.87R FOG     WCI  11
BEACH          CLOUDY    32  16  51 NW44G54   30.01R WCI  15
CROSBY         CLOUDY    27  23  86 NW39G47   29.89R WCI   8
TIOGA          CLOUDY    28  27  93 NW28G39   29.88R WCI  13
WATFORD CITY   CLOUDY    32  25  74 NW26G44   29.90R WCI  18
BISMARCK       FLURRIES  36  27  69 W25G33    29.79R WCI  24
GRAND FORKS    CLOUDY    36  28  73 NW20G30   29.51R WCI  25
FARGO          MOCLDY    36  27  69 W21       29.59R WCI  25
BUFFALO SD       N/A     33  14  45 W36G48    29.96R WCI  18
RAPID CITY     PTCLDY    35  12  38 NW32G41   30.10R WCI  21
$$

REGIONAL REPORTS...WYOMING/IDAHO/WASHINGTON

CITY           SKY/WX    TMP DP  RH WIND       PRES   REMARKS
GILLETTE       CLOUDY    30  15  53 NW18G30   30.20R WCI  18
SHERIDAN       CLOUDY    34  14  44 NW18      30.26R WCI  23
BUFFALO WY     CLOUDY    31  13  47 NW26G40   30.21S WCI  17
CODY           PTCLDY    25  18  74 CALM      30.28R
YELLOWSTONE LA   N/A      3  -1  83 W3        30.36R
IDAHO FALLS    FOG       11  10  96 CALM      30.49R VSB 1/4
SALMON         CLOUDY     9   7  92 E3        30.50R
BOISE          CLEAR     28  26  92 N5        30.53R FOG
SPOKANE        FOG       27  25  92 E3        30.52R VSB 1/4
$$

REGIONAL REPORTS...ALBERTA

CITY           SKY/WX    TMP DP  RH WIND       PRES   REMARKS
EDMONTON       PTCLDY    27  14  59 W14G20    30.25R WCI  15
CALGARY        PTCLDY    30   3  31 W15G22    30.32R WCI  19
LETHBRIDGE     CLEAR     28  14  54 W17G23    30.36R WCI  16
MEDICINE HAT   PTCLDY    28  12  50 W16G22    30.33R WCI  17
WATERTON GATE    N/A     28  10  47 SW13        N/A  WCI  18
CARDSTON         N/A     28  10  47 W12         N/A  WCI  18
MILK RIVER       N/A     23  14  68 W14         N/A  WCI  11
ONEFOUR          N/A     25  16  68 NW17        N/A  WCI  11
$$

REGIONAL REPORTS...SASKATCHEWAN

CITY           SKY/WX    TMP DP  RH WIND       PRES   REMARKS
SWIFT CURRENT  CLEAR     25  19  80 NW25G35   30.12R WCI   9
REGINA         CLOUDY    25  18  74 NW33G48   29.96R WCI   7
SASKATOON      PTCLDY    25  19  80 NW16      30.07R WCI  12
CYPRESS HILLS    N/A     21   9  58 NW12G20     N/A  WCI   9
VAL MARIE        N/A     28  14  54 NW28G35     N/A  WCI  13
ROCKGLEN         N/A     27  18  69 NW33G47     N/A  WCI   9
ASSINIBOIA       N/A     27  18  69 W17G23      N/A  WCI  14
$$



USA.gov is the U.S. government's official web portal to all federal, state and local government web resources and services.